Wetbulb
62.28 63.71 65.51 67.07 68.99 69.40 67.32 65.44 68.21 71.01 71.87 71.70 71.65 71.93 72.50 73.15 74.01 73.20 73.03 71.87 71.28 71.04 71.62 70.57 69.70 70.03 68.71 69.41 70.28 70.17 67.62 66.68 64.19 64.85 67.02 70.37 71.00 70.32 68.99 71.36 72.09 71.81 70.46
60.94 61.78 63.68 64.80 66.29 67.58 66.68 63.31 66.98 68.09 69.27 67.79 68.48 68.12 68.41 68.72 70.90 70.31 69.91 70.18 69.61 69.23 69.93 69.79 69.26 69.66 69.94 70.31 70.59 68.80 66.65 68.80 66.49 65.09 66.64 67.48 68.49 69.56 69.87 70.39 69.64 70.53 70.90
59.23 59.69 59.60 62.83 64.10 65.60 65.43 67.10 66.43 66.73 66.64 65.71 65.30 65.40 65.83 66.17 67.20 68.20 68.28 68.47 68.30 68.64 68.71 68.35 67.69 67.78 67.66 67.39 68.68 67.14 67.01 67.87 67.51 65.66 65.00 67.07 67.34 67.96 68.09 68.59 71.09 70.94 71.56
57.19 58.37 58.98 59.36 62.59 64.26 65.19 64.85 64.76 64.89 64.48 64.40 64.75 64.38 64.14 64.70 65.69 66.19 66.54 67.22 66.65 66.38 66.00 65.00 64.08 63.80 64.76 67.21 66.57 67.97 66.71 65.32 65.25 65.20 65.42 65.58 67.08 69.80 69.15 67.53 66.89 68.30 67.87
55.69 56.11 57.35 59.33 59.53 61.36 63.42 64.39 64.43 64.48 63.97 63.21 63.94 64.26 64.42 64.81 63.75 64.60 65.19 65.45 65.81 64.06 63.49 62.09 62.99 61.57 58.45 59.21 61.47 65.37 66.71 63.16 60.71 61.00 61.98 64.07 64.44 67.07 66.32 67.08 65.98 67.98 68.42
54.73 54.74 56.33 56.61 58.58 58.76 59.66 61.90 64.02 63.72 63.34 63.47 62.01 62.98 64.41 62.33 52.75 54.38 63.13 65.03 63.17 62.19 60.82 60.66 61.31 59.49 58.99 54.56 53.86 53.80 58.00 62.69 62.50 58.61 59.66 61.24 66.26 65.67 67.67 67.48 66.25 66.56 61.30
52.33 54.43 54.88 55.86 55.54 57.50 57.99 58.85 61.49 65.03 66.73 65.41 63.70 63.83 63.77 64.39 48.47 50.08 55.39 64.35 63.74 63.13 62.03 61.91 61.57 60.78 60.05 62.15 55.37 52.61 53.30 51.90 53.99 62.96 64.70 65.15 65.60 67.71 68.85 67.83 68.92 67.86 63.66
47.79 50.47 52.91 54.72 55.11 55.67 55.34 55.12 60.03 63.22 64.74 64.64 65.51 64.69 63.15 62.55 46.96 47.72 51.37 65.09 63.59 62.93 62.15 62.02 62.65 62.47 62.34 62.71 63.73 63.16 63.00 65.55 65.25 62.32 64.61 67.40 68.69 69.33 69.98 69.73 69.30 68.31 66.56
45.81 47.67 49.66 51.93 53.51 55.11 54.71 53.51 58.35 58.88 62.85 64.05 63.54 65.37 65.05 63.31 44.96 45.01 51.56 61.96 61.41 61.17 61.07 61.66 61.51 61.25 52.80 49.35 62.45 61.22 61.85 63.37 59.70 53.06 52.02 50.34 49.98 48.71 53.85 64.82 67.17 61.22 60.87
43.23 44.80 47.68 49.00 50.27 49.36 55.44 55.70 54.55 58.05 57.83 59.71 61.17 63.50 61.32 64.94 43.36 43.95 52.03 57.39 61.28 59.35 62.53 61.96 51.50 56.38 49.29 45.63 61.98 61.94 60.60 60.92 61.75 63.89 64.02 61.93 56.13 60.63 52.15 65.21 65.89 62.21 61.45
44.92 46.18 46.53 47.31 49.31 49.40 49.21 56.40 56.87 54.40 55.85 57.13 58.64 61.01 61.82 62.39 53.98 43.13 44.35 59.35 58.03 58.56 58.50 59.21 59.94 45.56 43.71 42.71 46.36 62.84 60.24 58.58 57.53 60.48 61.98 64.57 64.65 66.09 65.47 64.56 64.81 64.82 64.11
43.19 43.11 44.07 46.14 45.81 46.75 48.75 49.60 55.78 56.54 52.71 53.06 55.04 57.66 60.65 63.11 53.68 43.23 43.19 43.94 53.24 59.43 59.29 59.15 58.36 42.77 42.87 42.73 47.93 50.15 43.91 45.45 59.12 60.23 62.62 62.48 63.44 64.41 65.01 65.56 67.93 67.95 69.17
41.59 41.17 42.04 43.17 45.06 44.51 44.80 48.12 51.15 56.23 55.23 52.20 54.17 54.99 58.70 60.71 62.23 45.72 42.30 42.99 43.51 56.30 58.54 53.33 44.27 42.51 43.26 44.78 41.75 41.06 40.60 59.28 59.34 61.10 61.69 62.60 64.52 65.00 65.27 67.28 67.66 67.81 67.87
41.26 40.53 41.03 41.05 42.29 44.12 44.75 46.57 50.53 53.23 55.45 55.53 57.00 56.98 58.04 59.57 61.07 58.29 53.33 50.71 44.30 49.13 51.08 55.61 52.46 48.77 43.67 47.50 50.48 54.07 59.55 60.40 59.73 62.16 62.77 65.04 66.57 65.53 63.92 65.48 65.88 65.85 66.00
41.62 41.14 41.76 41.35 41.54 42.00 43.51 45.26 46.05 52.81 54.37 55.28 57.14 56.29 57.65 56.82 57.76 56.21 55.37 56.06 55.69 52.20 54.30 56.88 56.53 56.67 56.79 57.51 58.38 58.03 59.72 60.16 61.47 62.64 63.60 63.84 63.28 63.25 64.01 65.15 65.10 64.87 63.63
42.01 40.93 40.37 41.28 41.27 41.81 42.64 43.76 42.33 41.92 41.12 40.87 43.42 50.60 55.46 51.74 46.75 45.69 46.67 46.35 46.07 44.40 53.13 56.00 56.37 56.93 56.31 56.66 58.03 59.01 60.65 57.87 62.05 63.28 63.57 62.72 61.79 62.65 63.14 64.11 64.77 64.31 63.24
42.55 40.90 40.89 41.50 41.73 41.71 43.04 43.20 42.28 44.18 42.21 41.93 40.42 42.85 42.72 41.13 41.54 43.13 42.18 40.85 41.36 44.54 55.96 56.23 56.15 56.01 55.97 56.73 58.34 59.22 59.45 60.37 62.29 63.17 62.28 62.50 63.29 62.74 60.29 62.94 63.41 62.89 62.23
44.11 41.14 41.70 42.23 42.42 42.86 43.97 44.75 44.36 44.16 45.51 45.97 43.36 43.51 42.43 41.87 40.21 40.66 39.71 44.49 50.24 48.80 54.96 54.57 54.48 54.81 55.69 56.98 58.53 59.46 59.83 60.63 61.63 62.23 62.54 63.99 64.01 63.45 62.15 62.75 63.55 63.22 62.24
45.45 44.13 43.24 43.89 44.56 44.90 44.15 45.47 47.74 46.77 46.16 46.68 48.75 43.72 41.61 39.32 38.11 37.78 39.63 55.89 54.51 54.12 53.84 53.67 54.69 55.26 56.26 58.42 59.47 60.33 60.13 61.22 60.22 62.17 64.25 64.12 64.25 64.42 63.24 63.32 63.10 54.50 56.35
48.33 42.85 44.86 46.03 46.79 46.37 45.58 46.15 45.98 46.02 46.14 47.15 46.47 48.39 50.61 48.12 50.68 51.69 52.79 54.34 54.70 54.51 55.10 54.72 55.33 56.51 57.14 58.23 60.19 60.19 61.02 60.77 61.37 63.75 64.27 64.06 63.28 63.98 62.76 61.69 63.04 61.91 60.63
48.59 48.34 43.76 47.28 46.25 46.23 46.10 46.91 48.47 47.88 46.69 46.38 46.21 48.55 44.81 50.69 51.01 51.85 52.68 53.47 54.06 54.59 55.64 56.59 57.01 57.89 57.92 58.90 60.22 61.92 62.25 61.80 64.06 64.31 63.23 63.23 63.83 64.19 63.15 61.38 61.78 61.30 61.29
49.58 49.87 48.39 48.03 48.48 48.29 48.13 48.05 46.51 45.87 45.75 45.86 47.31 49.72 36.97 50.93 52.07 52.09 52.75 53.29 54.24 55.47 56.86 57.93 58.49 59.05 59.56 59.46 59.46 62.72 61.89 62.63 64.14 64.15 64.37 63.89 64.82 63.93 61.94 62.70 61.96 62.18 58.67
50.81 50.65 50.07 50.25 50.67 46.98 49.57 49.99 49.57 49.61 48.78 48.76 50.28 50.32 50.34 51.72 52.67 53.20 53.80 55.07 56.31 57.29 57.36 57.94 58.55 57.75 60.33 60.79 63.03 62.80 63.42 64.23 64.76 65.19 65.19 63.70 63.01 62.74 62.04 62.01 62.28 60.88 59.65
50.50 51.75 52.29 51.84 51.41 50.78 52.38 52.94 52.01 48.05 51.80 51.90 52.87 53.80 52.82 52.79 54.06 55.28 55.83 57.01 56.80 57.92 57.85 58.96 57.25 59.28 61.24 62.06 62.88 63.76 65.53 65.84 65.39 64.99 64.26 62.63 62.93 61.21 62.89 62.13 60.50 60.52 58.69
43.00 45.92 48.59 51.05 53.80 53.78 54.03 53.37 53.52 53.89 53.58 55.58 54.90 54.43 52.44 53.59 54.45 55.78 55.65 55.75 55.46 56.96 58.00 58.70 60.44 61.56 61.89 62.84 62.55 63.92 57.08 43.45 60.37 55.97 65.02 63.47 61.79 61.31 59.87 59.40 59.29 56.84 54.07
38.44 39.81 41.75 44.23 46.83 49.08 51.28 51.98 51.72 51.68 51.42 52.45 54.90 56.66 55.58 54.31 54.82 56.31 56.59 57.37 58.05 58.37 59.54 61.46 61.67 62.22 62.81 63.32 63.41 51.69 39.10 40.01 52.72 44.36 61.94 61.89 62.30 61.30 60.42 58.49 57.08 55.58 54.27
MSLP
999.89 999.33 998.64 998.05 997.89 998.01 998.39 998.82 997.97 993.40 995.69 998.14 995.97 997.81 1000.39 1001.47 1002.24 1003.08 1003.49 1003.80 1004.54 1005.20 1005.70 1005.96 1006.34 1006.66 1006.67 1006.76 1007.34 1007.68 1008.14 1008.29 1007.80 1007.23 1006.62 1006.18 1006.83 1006.88 1006.42 1005.74 1005.43 1005.47 1005.12
1000.01 999.72 998.91 998.69 998.06 997.68 998.49 998.95 998.97 996.89 998.15 998.22 999.08 999.75 1000.41 1001.15 1001.85 1002.44 1003.02 1003.11 1003.88 1004.67 1005.12 1005.26 1005.39 1005.61 1006.01 1006.38 1006.85 1007.10 1007.38 1006.97 1006.57 1006.74 1006.54 1006.30 1006.46 1006.39 1005.91 1005.56 1005.39 1005.22 1004.80
1000.35 1000.00 999.67 999.24 998.84 998.24 998.16 998.52 998.14 998.15 998.67 998.88 998.75 999.22 999.89 1000.64 1001.34 1001.86 1002.51 1002.93 1003.68 1004.11 1004.43 1004.75 1004.82 1005.08 1005.51 1005.78 1006.27 1006.09 1006.06 1006.09 1005.99 1006.05 1005.82 1005.74 1005.69 1005.73 1005.26 1005.20 1004.75 1005.09 1004.78
1000.33 1000.14 999.90 999.60 998.93 998.57 998.24 998.56 998.40 998.37 998.33 998.25 998.52 999.22 999.73 1000.25 1000.86 1001.35 1002.04 1002.46 1003.41 1003.61 1003.85 1004.36 1004.68 1004.95 1005.35 1005.72 1006.01 1006.13 1006.18 1006.18 1005.80 1005.39 1005.13 1004.84 1004.75 1004.85 1004.93 1004.72 1004.27 1004.57 1004.71
1000.40 1000.17 1000.08 999.70 999.50 998.97 998.06 997.73 997.57 997.75 997.36 997.83 998.52 999.24 999.76 1000.03 1000.76 1001.36 1001.88 1002.54 1003.05 1003.53 1004.28 1004.77 1004.98 1005.14 1005.42 1005.78 1005.98 1005.94 1006.01 1005.98 1005.71 1005.26 1004.60 1003.88 1003.98 1004.32 1004.59 1004.48 1003.82 1004.25 1004.16
1000.33 999.99 999.76 999.68 999.39 999.12 998.77 998.31 997.98 998.00 997.88 997.99 998.37 998.86 999.30 999.66 1000.34 1001.24 1001.76 1002.48 1003.26 1003.71 1004.18 1004.49 1004.73 1005.01 1005.16 1005.45 1005.76 1006.01 1006.32 1006.51 1006.38 1005.95 1005.11 1004.17 1003.80 1004.04 1004.09 1003.82 1003.96 1003.81 1004.16
1000.77 999.57 999.08 998.89 999.16 999.25 998.93 998.87 998.24 997.97 997.82 998.18 998.37 998.21 999.01 999.83 1000.62 1001.27 1001.96 1002.71 1003.31 1003.66 1004.04 1004.37 1004.52 1004.16 1004.47 1004.68 1005.16 1005.45 1005.57 1005.60 1005.74 1005.59 1005.05 1004.49 1004.16 1003.90 1003.86 1003.64 1003.69 1003.69 1003.54
1001.27 1000.35 999.08 998.08 997.64 998.62 998.98 999.12 998.82 998.24 998.41 998.52 998.27 998.31 999.24 999.83 1000.99 1001.31 1002.03 1002.58 1003.10 1003.43 1003.82 1004.19 1004.42 1004.47 1004.58 1004.63 1004.53 1004.57 1004.54 1004.36 1004.40 1004.80 1004.75 1004.22 1004.01 1003.94 1003.91 1003.76 1003.63 1003.55 1003.53
1000.73 999.88 999.32 998.39 997.58 996.89 997.95 998.72 999.22 998.47 998.67 998.73 998.63 998.38 998.89 1000.06 1000.68 1001.53 1001.98 1002.41 1002.66 1003.18 1003.54 1003.81 1003.97 1004.15 1004.40 1004.75 1004.79 1004.64 1004.34 1004.11 1003.94 1003.72 1003.81 1003.88 1003.85 1003.80 1003.92 1004.20 1003.52 1003.74 1003.81
999.91 999.56 998.91 998.52 997.69 997.63 997.09 997.57 998.34 998.30 998.70 998.81 999.05 998.96 998.65 999.40 1000.72 1001.30 1001.70 1001.72 1002.19 1002.66 1003.14 1003.43 1003.75 1004.01 1004.21 1004.67 1004.75 1004.44 1004.13 1004.02 1003.80 1003.56 1003.79 1003.53 1003.58 1003.50 1003.57 1003.75 1003.44 1003.48 1003.49
998.66 998.29 998.15 998.21 997.24 997.09 997.20 997.01 997.10 998.15 998.07 998.64 999.29 999.25 998.95 998.65 1000.32 1001.27 1001.51 1001.42 1001.24 1001.96 1002.27 1002.43 1002.52 1003.36 1003.95 1004.70 1004.82 1004.29 1004.28 1004.27 1004.18 1003.92 1003.68 1003.44 1003.24 1002.97 1002.95 1002.85 1002.99 1003.23 1002.89
997.69 997.53 997.38 997.23 997.27 997.18 996.66 996.58 996.44 996.30 996.85 997.92 998.96 999.18 998.89 998.68 999.10 1000.95 1001.27 1001.64 1001.15 1001.21 1001.36 1001.65 1002.47 1003.74 1004.22 1004.60 1004.69 1004.23 1004.28 1004.55 1003.71 1003.67 1003.35 1003.08 1002.85 1002.71 1002.59 1002.61 1002.80 1002.96 1002.44
996.51 996.40 996.28 996.35 996.40 996.58 996.87 995.81 995.48 995.22 995.34 996.34 997.66 998.34 998.08 998.09 998.71 1000.12 1001.12 1001.37 1001.75 1001.84 1001.28 1002.03 1003.07 1003.80 1004.06 1004.27 1004.11 1004.03 1004.03 1003.38 1002.89 1003.10 1002.74 1002.51 1002.37 1002.28 1002.09 1002.12 1002.34 1002.78 1002.38
995.08 994.97 995.10 995.28 995.35 995.56 995.88 995.78 995.07 994.34 994.84 995.33 995.90 996.32 997.15 997.30 997.65 999.00 1000.15 1001.18 1001.99 1002.14 1001.94 1001.97 1002.37 1002.88 1003.09 1003.11 1003.21 1002.85 1002.70 1002.13 1002.21 1002.38 1002.25 1001.99 1001.72 1002.16 1002.43 1002.14 1002.23 1002.59 1002.47
994.03 993.75 993.56 993.87 994.37 994.73 995.07 995.27 995.16 994.39 994.77 995.37 995.34 995.63 995.98 996.49 996.65 997.27 998.72 999.93 1000.78 1001.28 1001.71 1001.81 1001.85 1001.88 1001.73 1001.54 1001.36 1001.48 1001.25 1001.14 1001.72 1002.13 1002.01 1001.81 1001.86 1001.87 1001.97 1002.06 1002.36 1002.37 1002.31
992.82 992.53 992.37 992.78 993.49 994.06 994.45 994.79 995.23 995.63 995.62 996.06 996.33 995.57 995.46 995.98 996.33 997.03 998.01 999.02 999.84 1000.64 1001.55 1000.92 1000.75 1000.55 1000.36 1000.12 999.96 999.98 1000.22 1000.93 1001.36 1001.64 1001.66 1001.68 1001.59 1001.43 1001.58 1001.83 1002.00 1002.11 1002.24
992.55 992.18 991.76 992.42 993.12 993.59 993.89 994.37 994.78 995.71 995.74 996.20 995.94 996.09 996.42 996.34 996.30 996.70 998.01 999.30 999.97 1000.51 1000.35 1000.21 1000.03 999.85 999.56 999.28 999.12 999.09 999.52 1000.44 1001.17 1001.17 1001.30 1001.36 1001.06 1001.06 1001.39 1001.51 1001.60 1001.69 1001.87
992.69 992.73 992.63 992.76 993.05 993.36 993.61 994.00 994.39 994.87 995.63 995.73 995.57 996.16 996.54 996.90 997.18 997.10 998.11 998.90 1000.28 1000.35 999.96 999.82 999.54 999.27 998.94 998.77 998.45 998.48 999.19 1000.02 1000.73 1000.87 1000.90 1000.74 1000.74 1000.53 1000.72 1001.03 1001.21 1001.38 1001.86
992.58 992.61 992.76 992.87 992.89 993.05 993.54 993.51 993.68 994.19 994.80 995.20 995.97 996.53 997.24 997.63 998.16 998.24 997.82 997.67 998.37 999.09 999.54 999.41 999.08 998.70 998.39 998.10 997.95 998.03 999.01 999.45 1000.27 1000.39 1000.29 1000.31 1000.24 1000.35 1000.57 1000.77 1001.09 1001.43 1001.88
992.41 992.89 992.80 992.73 992.78 993.05 993.35 993.33 993.68 994.17 994.74 995.35 995.98 995.90 996.73 997.79 998.09 998.11 998.03 997.43 997.45 997.95 998.10 998.50 998.58 998.10 997.72 997.37 997.11 997.63 998.29 999.34 999.89 999.80 999.76 999.83 999.95 1000.25 1000.47 1000.76 1001.02 1001.24 1002.04
992.67 992.60 992.76 992.79 992.92 993.06 993.18 993.19 993.30 993.79 994.52 995.16 995.88 995.99 995.83 995.97 996.44 996.74 996.99 997.06 997.10 997.09 997.01 997.05 997.03 997.08 996.91 996.82 996.83 997.46 998.34 998.96 998.96 999.05 999.33 999.54 999.90 1000.01 1000.21 1000.64 1000.74 1001.29 1002.31
992.59 992.36 992.29 992.36 992.50 992.71 992.97 993.11 993.46 993.87 994.29 994.63 994.83 994.40 994.73 995.29 995.23 995.61 995.99 996.25 996.29 996.42 996.26 996.15 995.77 995.65 995.69 996.07 996.53 997.44 998.04 998.35 998.19 998.44 998.73 999.12 999.40 999.62 999.92 999.96 1000.71 1001.71 1002.61
992.69 992.14 992.03 991.99 992.00 992.22 992.52 992.58 992.77 992.99 993.28 993.65 993.80 994.13 994.47 994.35 994.43 994.49 994.69 994.91 995.24 995.54 995.69 995.63 995.56 995.86 995.61 995.89 996.54 997.55 997.47 997.51 997.65 997.80 998.36 998.70 999.04 999.26 999.60 1000.18 1001.24 1001.91 1002.32
993.29 992.62 992.33 991.91 991.65 991.74 991.49 991.51 991.92 992.21 992.23 992.32 992.42 992.48 993.33 994.00 993.75 993.26 993.32 993.55 994.03 994.44 994.67 994.80 995.05 995.31 995.40 996.14 996.97 997.24 997.10 997.24 997.45 997.67 998.13 998.44 998.57 999.09 999.97 1000.66 1001.37 1001.91 1002.81
995.05 994.20 993.37 992.69 992.04 991.64 991.69 991.72 991.77 991.81 991.81 991.77 992.02 992.56 993.10 993.06 993.43 993.16 993.21 993.44 993.73 993.93 993.86 994.36 994.46 995.00 995.54 996.07 996.48 996.58 996.70 997.11 997.24 997.47 997.85 998.11 998.76 999.60 1000.47 1001.06 1001.81 1002.77 1003.62
996.71 995.80 994.99 994.26 993.57 992.87 992.36 992.17 992.12 992.01 991.84 991.82 991.84 991.98 992.30 992.85 993.12 992.90 992.75 992.79 992.71 992.83 993.06 993.91 994.59 995.16 995.47 995.97 996.25 996.44 996.70 997.03 997.17 997.03 997.55 998.03 998.91 999.75 1000.64 1001.65 1002.45 1003.07 1003.67
Wind_Speed
15 14 14 14 12 13 10 15 15 6 8 12 6 12 15 14 13 13 13 12 15 13 13 11 12 11 9 7 6 6 8 10 10 9 10 4 7 9 7 6 7 8 6
11 12 13 13 12 12 7 14 23 9 12 12 14 15 14 14 12 13 14 14 14 11 13 12 11 7 9 8 7 10 10 10 7 8 10 7 6 8 6 6 7 9 6
8 13 8 11 12 13 9 10 12 11 12 13 14 14 14 14 14 13 12 14 11 11 10 11 10 9 8 6 8 8 8 8 9 10 9 8 6 7 4 7 4 8 2
14 9 12 10 11 10 9 10 12 12 13 12 12 12 14 14 13 12 12 11 9 9 7 5 6 6 7 7 8 7 8 8 9 9 10 9 7 6 7 7 9 7 7
16 15 12 12 9 13 12 12 11 9 10 13 13 13 13 12 11 13 12 11 9 8 6 6 8 7 5 5 7 8 6 7 9 9 10 9 7 5 9 8 8 7 8
19 19 17 13 16 10 10 11 13 14 12 11 12 13 12 12 13 13 12 10 10 9 7 6 4 5 9 11 10 10 9 8 10 11 11 11 7 9 8 8 7 7 5
23 23 20 19 14 16 9 12 14 14 11 13 13 14 13 12 15 15 11 9 9 7 7 5 5 5 4 8 11 13 13 16 18 13 12 11 12 11 10 10 9 8 7
18 23 23 22 19 15 10 12 11 10 12 12 11 12 11 11 13 18 15 10 9 9 7 6 7 7 8 8 10 9 10 9 9 9 12 13 12 12 10 9 10 8 6
22 21 17 21 20 18 16 14 17 10 9 10 13 12 14 13 18 15 15 11 10 9 8 9 8 8 7 4 9 11 11 9 10 8 4 4 8 9 8 7 6 4 3
19 20 18 19 18 16 16 19 15 13 12 8 12 15 14 13 16 19 15 12 10 10 9 9 11 12 10 8 8 10 9 10 10 12 11 10 8 10 8 8 3 3 7
19 20 16 17 19 15 17 14 19 17 12 12 11 12 15 12 15 17 18 13 11 11 8 8 8 9 8 9 7 9 9 8 11 10 10 6 4 5 7 6 3 5 5
17 18 19 21 18 16 16 15 16 18 19 15 14 12 13 14 13 17 19 16 8 9 8 6 2 9 8 7 6 8 6 6 9 8 6 4 5 6 4 4 6 8 5
17 17 16 17 18 18 16 15 15 16 15 17 15 16 13 13 13 20 17 18 11 7 8 3 11 9 8 9 16 12 8 9 8 8 6 6 7 6 4 4 3 8 3
16 17 15 15 15 15 13 11 13 14 15 14 17 18 17 13 13 13 12 11 4 7 6 6 7 7 7 9 9 9 8 10 8 6 5 8 6 4 5 4 4 5 4
11 11 12 12 13 12 13 12 11 14 13 14 12 13 16 15 14 15 15 13 11 12 10 9 9 10 10 10 9 11 11 9 6 6 6 6 4 3 4 5 5 6 6
9 8 10 9 9 9 10 10 17 13 17 13 5 6 10 14 15 20 23 17 15 13 12 10 10 10 10 11 10 10 8 6 7 6 6 5 7 7 6 6 5 6 6
6 7 3 7 7 8 8 9 11 14 12 13 3 11 6 4 8 19 21 18 16 13 11 11 10 10 11 11 11 10 6 7 7 8 7 7 9 7 4 6 6 5 6
6 3 3 4 5 6 7 8 10 13 12 9 3 4 10 5 6 16 21 19 8 4 10 11 11 12 11 12 11 9 5 8 7 7 8 7 8 7 7 6 7 7 6
3 3 4 4 5 6 6 6 9 9 9 8 9 4 7 9 8 6 8 13 12 11 10 12 12 13 12 11 11 7 8 7 7 8 8 8 8 6 7 6 6 8 8
6 5 4 2 3 8 6 5 6 8 7 7 7 8 10 8 9 8 8 10 10 11 11 12 13 13 13 13 11 7 8 6 9 10 8 7 6 6 5 6 8 8 7
4 3 2 3 3 3 2 4 5 7 7 8 6 12 18 14 14 12 11 11 11 11 12 12 13 13 13 12 7 5 6 8 11 10 7 7 7 8 7 7 8 11 11
3 1 2 3 3 5 6 7 8 8 8 8 10 8 12 12 14 14 14 14 14 14 12 12 11 10 12 10 10 7 8 10 10 8 8 8 9 8 7 8 7 10 10
6 2 2 4 5 7 7 8 9 10 10 11 11 8 9 10 11 15 15 14 13 13 13 13 10 10 6 7 4 7 11 10 10 9 9 8 9 9 7 7 11 9 9
8 6 8 6 5 6 6 5 6 8 6 8 10 10 12 12 11 12 12 12 11 12 12 11 8 14 7 8 7 10 8 8 7 9 11 9 8 8 8 10 7 12 11
12 11 9 8 8 4 3 3 0 3 5 8 10 11 9 10 11 10 8 5 9 11 13 11 10 9 14 15 14 15 8 7 10 11 10 9 9 11 11 8 12 11 13
12 12 11 10 10 9 8 5 5 3 2 2 5 9 10 9 11 12 7 7 13 12 12 7 9 15 16 14 14 9 7 8 8 9 9 8 12 11 11 14 18 13 13
Wind_Direction
323 306 283 280 247 240 258 264 252 91 132 187 176 170 192 201 204 201 224 220 215 217 229 234 226 230 240 247 234 236 243 235 242 260 266 275 288 270 272 262 285 294 258
325 330 309 309 279 267 185 154 258 189 182 190 183 189 195 199 204 210 216 230 220 214 222 226 238 230 232 228 232 233 232 262 299 277 271 280 261 273 259 288 287 281 268
313 315 312 267 274 286 221 217 199 197 189 201 191 192 196 198 198 204 211 219 219 208 201 199 203 198 200 246 246 275 246 237 232 241 256 263 252 260 245 236 252 270 308
299 293 299 312 284 257 251 241 203 199 192 198 192 196 197 194 195 193 204 192 176 184 175 191 210 223 229 236 248 256 265 274 278 272 255 252 261 257 272 277 276 241 243
293 286 272 274 276 293 267 243 220 225 196 196 194 199 199 187 184 190 187 180 178 167 156 206 216 245 307 303 285 275 296 287 275 284 280 260 255 253 262 271 269 265 224
279 277 275 256 276 261 286 279 237 228 217 207 193 199 197 202 167 172 173 163 174 180 189 204 254 243 243 234 240 244 263 275 270 276 284 289 293 281 283 274 264 265 242
295 278 260 260 236 266 242 265 257 243 215 214 200 191 190 208 144 133 144 166 180 183 192 215 251 276 273 255 224 230 233 233 232 248 263 271 284 282 290 282 271 260 252
289 289 278 267 245 220 242 275 251 253 237 232 222 195 205 178 165 149 156 179 189 186 199 222 248 271 272 281 277 270 269 279 243 232 248 266 271 277 278 284 273 262 273
276 265 277 268 276 224 220 213 260 242 246 238 238 226 201 174 159 161 161 185 185 199 208 224 244 264 295 225 251 263 270 283 287 273 283 294 295 277 258 280 254 243 277
257 268 273 264 268 271 237 203 217 235 226 247 247 245 207 180 173 166 178 190 190 200 205 230 219 237 239 178 245 263 274 281 291 314 311 262 247 256 235 250 210 225 232
255 252 243 264 268 259 258 244 202 211 211 225 250 246 250 210 174 181 189 210 201 192 224 222 234 191 219 171 227 248 262 315 300 294 293 287 253 219 202 191 221 248 262
262 254 253 248 252 264 256 248 238 207 201 206 229 245 233 233 175 193 191 216 232 223 226 235 113 102 133 164 199 244 257 294 279 279 264 234 234 227 227 214 234 253 243
259 254 246 242 237 233 255 240 244 206 196 196 213 223 230 207 204 170 195 205 224 234 237 119 124 156 179 216 230 253 243 256 269 269 244 233 226 214 229 222 224 239 175
257 243 237 235 230 229 223 258 236 226 203 198 199 203 210 212 198 172 190 203 197 230 241 250 271 293 294 283 289 238 235 254 264 261 241 247 211 171 218 210 198 198 203
274 261 240 216 220 218 226 225 252 240 229 204 212 203 198 208 193 177 174 187 195 211 208 232 244 241 244 252 247 240 243 256 246 239 236 219 197 213 232 214 224 207 191
282 273 231 208 200 206 209 216 229 269 298 319 279 226 218 205 180 163 168 167 174 181 203 221 225 238 251 258 253 244 214 239 250 226 223 217 223 220 216 217 213 208 193
339 351 107 180 180 196 195 205 202 232 268 276 202 116 72 19 196 162 137 128 135 141 202 210 232 246 260 260 253 249 227 235 230 232 206 223 229 212 198 213 214 202 183
41 61 108 153 179 195 189 205 191 199 214 215 190 192 122 83 66 137 138 127 144 177 209 231 243 251 252 255 252 240 208 234 208 216 228 235 224 209 206 206 196 178 154
2 128 161 217 174 168 189 224 203 182 199 203 235 187 108 90 91 80 165 186 194 198 209 233 239 245 249 247 244 229 230 207 217 222 228 228 223 193 202 191 170 158 175
83 56 30 119 165 158 189 157 168 178 183 190 212 260 175 155 182 180 198 211 210 211 213 207 236 243 242 245 241 214 215 194 214 221 221 217 198 193 168 162 187 174 135
92 82 119 162 159 175 196 204 185 167 177 193 218 218 225 193 199 199 201 206 218 228 220 225 219 224 229 240 238 238 203 207 216 205 213 196 191 185 172 193 200 117 113
315 194 156 134 160 182 182 189 189 192 201 202 231 201 167 196 209 208 210 214 221 225 229 232 234 226 217 219 219 203 210 221 213 205 186 189 192 183 195 166 121 121 140
328 229 185 181 193 181 189 185 184 187 189 189 196 176 183 199 213 203 210 206 207 212 218 223 209 231 243 222 198 220 219 217 210 185 184 184 177 190 165 135 134 137 138
319 340 335 305 213 207 214 194 182 197 196 191 186 181 181 196 213 214 204 198 195 205 211 222 220 226 203 217 217 230 230 216 200 186 176 178 189 142 115 128 141 128 125
14 7 358 347 338 16 38 61 88 202 201 198 185 172 189 189 201 220 196 208 184 211 205 214 209 199 210 211 221 215 204 189 192 179 176 154 127 130 123 129 126 127 131
13 9 6 8 7 6 19 37 42 44 62 139 191 177 183 176 195 220 204 224 199 192 194 183 200 212 216 212 215 218 156 148 180 205 132 136 130 128 124 131 140 139 140